Flag for Netherlands Weather past 2 weeks in Almere, Netherlands

Now
46 °F

Clear.


Feels Like: 44 °F
Forecast: 41 / 61 °F
Wind: 6 mph from Northeast

Location: Amsterdam Schiphol Airport

Current Time: Apr 19, 2015 at 11:15:54 PM

Latest Report: Apr 19, 2015 at 10:55 PM


Visibility: 10 mi

Pressure: 30.27 "Hg

Humidity: 76%

Dew point: 39 °F

Location of AlmereLocation

Historic Weather in Almere — Graph

°F

Almere temperature yesterday

Maximum temperature yesterday: 57 °F (at 1:55 PM)
Minimum temperature yesterday: 39 °F (at 2:55 AM)
Average temperature yesterday: 48 °F

Past Weeks' High & Low Weather Summary

 TemperatureHumidityPressure
High70 °F (Apr 15, 3:25 PM)100% (Apr 5, 6:25 AM)30.63 "Hg (Apr 5, 6:25 AM)
Low30 °F (Apr 5, 4:55 AM)39% (Apr 14, 1:55 PM)29.89 "Hg (Apr 11, 3:55 AM)
Average48 °F75%30.27 "Hg
* Reported Apr 4 9:25 PM — Apr 19 9:55 PM, Almere, Weather by CustomWeather, © 2015

Note: Actual official high and low records may vary slightly from our data, if they occured in-between our weather recording intervals... More about our weather records

Advertising

Almere weather history for previous 24 hours

 ConditionsComfort  
Time TempWeatherWind HumidityBarometerVisibility
9:55 PM
Sun, Apr 19
48 °FClear.7 mph71%30.24 "Hg10 mi
9:25 PM50 °FSunny.8 mph67%30.24 "Hg10 mi
8:55 PM50 °FPassing clouds.8 mph67%30.21 "HgN/A
8:25 PM50 °FPassing clouds.9 mph67%30.21 "HgN/A
7:55 PM54 °FSunny.12 mph54%30.21 "Hg10 mi
7:25 PM54 °FSunny.10 mph54%30.21 "Hg10 mi
6:55 PM55 °FSunny.9 mph51%30.21 "Hg10 mi
6:25 PM55 °FPassing clouds.3 mph51%30.18 "HgN/A
5:55 PM55 °FPassing clouds.5 mph51%30.18 "HgN/A
5:25 PM55 °FPassing clouds.3 mph47%30.18 "HgN/A
4:55 PM55 °FPassing clouds.5 mph47%30.18 "HgN/A
4:25 PM55 °FPassing clouds.6 mph44%30.18 "HgN/A
3:55 PM55 °FPassing clouds.2 mph47%30.18 "HgN/A
3:25 PM55 °FScattered clouds.5 mph47%30.18 "HgN/A
2:55 PM54 °FScattered clouds.3 mph54%30.18 "HgN/A
2:25 PM52 °FScattered clouds.6 mph54%30.18 "HgN/A
1:55 PM54 °FScattered clouds.7 mph54%30.18 "HgN/A
1:25 PM54 °FPassing clouds.3 mph54%30.18 "HgN/A
12:55 PM52 °FScattered clouds.3 mph62%30.18 "HgN/A
12:25 PM50 °FScattered clouds.3 mph67%30.18 "HgN/A
11:55 AM48 °FScattered clouds.3 mph71%30.18 "HgN/A
11:25 AM48 °FScattered clouds.3 mph71%30.21 "HgN/A
10:55 AM48 °FScattered clouds.2 mph76%30.18 "HgN/A
10:25 AM46 °FPassing clouds.2 mph82%30.21 "HgN/A
9:55 AM46 °FPassing clouds.3 mph82%30.21 "HgN/A
9:25 AM46 °FPassing clouds.3 mph76%30.21 "HgN/A
8:55 AM45 °FPassing clouds.2 mph81%30.21 "HgN/A
8:25 AM41 °FPassing clouds.1 mph87%30.21 "HgN/A
7:55 AM39 °FPassing clouds.1 mph87%30.21 "HgN/A
7:25 AM37 °FPassing clouds.1 mph87%30.21 "HgN/A
6:55 AM37 °FPassing clouds.3 mph87%30.21 "HgN/A
6:25 AM37 °FPassing clouds.3 mph87%30.21 "HgN/A
5:55 AM37 °FPassing clouds.2 mph93%30.21 "HgN/A
5:25 AM37 °FPassing clouds.5 mph87%30.24 "HgN/A
4:55 AM36 °FPassing clouds.5 mph87%30.24 "HgN/A
4:25 AM37 °FPassing clouds.3 mph87%30.24 "HgN/A
3:55 AM37 °FPassing clouds.5 mph87%30.24 "HgN/A
3:25 AM37 °FPassing clouds.5 mph87%30.27 "HgN/A
2:55 AM37 °FPassing clouds.5 mph87%30.27 "HgN/A
2:25 AM37 °FClear.3 mph87%30.27 "Hg10 mi
1:55 AM39 °FClear.6 mph81%30.30 "Hg10 mi
1:25 AM39 °FClear.6 mph87%30.30 "Hg10 mi
12:55 AM41 °FClear.7 mph81%30.33 "Hg10 mi
12:25 AM41 °FClear.7 mph81%30.33 "Hg10 mi
11:55 PM
Sat, Apr 18
43 °FClear.9 mph81%30.33 "Hg10 mi
Weather by CustomWeather, © 2015

See weather overviewHow to use our weather pages